Location: Burland Observatory
(39.4088°N, 105.4217°W)
Time: 18:36:41
(UTC-07:00)

Vanguard 3 - Pass Details

Date: 12 December 2019
Orbit: 507 x 3263 km, 33.4° (Epoch: 22 January)

Event Time Altitude Azimuth Distance (km) Brightness Sun altitude
Rises 13:48:04 0° 277° (W) 5,714 11.7 22.2°
Reaches altitude 10° 13:52:01 10° 268° (W) 5,065 11.7 21.8°
Maximum altitude 14:04:51 31° 214° (SSW) 4,363 13.2 20.6°
Drops below altitude 10° 14:20:38 10° 161° (SSE) 6,180 12.2 18.9°
Sets 14:26:17 0° 152° (SSE) 7,103 12.3 18.2°
